User: anonymous   Login
Location: Berg
(48.5667°N, 13.9833°E)
Time: 20:10:32
(UTC+00:00)
Language:

COSMOS 2406 - Orbit

View from above orbital plane
View from above orbital plane
View from above satellite
View from above satellite

Ground track
Ground track

The orbit data is extracted from the following two-line orbital elements,

1 28352U 04021A   20184.83093416 -.00000103 +00000-0 -30590-4 0  9993
2 28352 071.0014 323.4376 0015006 225.5698 134.4196 14.11665203827680
Epoch (UTC): 02 July 2020 19:56:32
Eccentricity: 0.0015006
inclination: 71.0014°
perigee height: 843 km
apogee height: 864 km
right ascension of ascending node: 323.4376°
argument of perigee: 225.5698°
revolutions per day: 14.11665203
mean anomaly at epoch: 134.4196°
orbit number at epoch: 82768

The dashed part of the orbit path shows where the satellite is in the earth's shadow,  

DLR